User: anonymous   Login
Location: Morlupo
(42.1333°N, 12.5000°E)
Time: 07:40:27
(UTC+00:00)
Language:

CZ-2C R/B - Orbit

View from above orbital plane
View from above orbital plane
View from above satellite
View from above satellite

Ground track
Ground track

The orbit data is extracted from the following two-line orbital elements,

1 43173U 18011E   20336.73713660  .00005392  00000-0  15547-3 0  9990
2 43173  34.9699 100.4305 0141921  85.6441 276.0475 15.25576731158983
Epoch (UTC): 01 December 2020 17:41:28
Eccentricity: 0.0141921
inclination: 34.9699°
perigee height: 391 km
apogee height: 586 km
right ascension of ascending node: 100.4305°
argument of perigee: 85.6441°
revolutions per day: 15.25576731
mean anomaly at epoch: 276.0475°
orbit number at epoch: 15898

The dashed part of the orbit path shows where the satellite is in the earth's shadow,  

DLR